Lanzarote > ESTACION METEOROLÓGICA Yaiza

DATOS ACTUALES Online

Ultima actulizacion 39 minutos

19.1 ºC

Temperatura

53

Humedad (%)

Presión (mb)

0

Precipitación (mm)

35.9 N

Viento (Km/h)

DATOS DIARIOS

Temperatura últimas 24 horas (ºC)

Humedad últimas 24 horas (%)

Presión atmosférica últimas 24 horas (mb)

Precipitaciones últimas 23 horas (mm)

Viento últimas 24 horas (Km/h)

Hora Temperatura (°C) ºC Precipitación (mm) mm Presión (mb) mb Humedad (%) % Viento (Km/h) km/h
28 - 09:00 20.1 0 0 50 32.2 NO
28 - 10:00 19.8 0 0 61 36 NO
28 - 11:00 20.5 0 0 63 38.7 N
28 - 12:00 20.4 0 0 61 37.1 NO
28 - 13:00 19.2 0 0 58 36.6 N
28 - 14:00 15.9 0 0 51 40.6 N
28 - 15:00 12.9 0 0 60 38.3 NO
28 - 16:00 17.3 0 0 65 45.5 NO
28 - 17:00 18.4 0 0 62 42.3 NO
28 - 18:00 19.7 0 0 65 41.8 N
28 - 19:00 19.4 0 0 56 43 NO
28 - 20:00 16.2 0 0 72 44.7 N
28 - 21:00 15.3 0 0 74 41.3 N
28 - 22:00 16.2 0 0 48 37.3 N
28 - 23:00 19.4 0 0 63 42.5 N
29 - 00:00 19 0 0 57 29.8 N
29 - 01:00 18.7 0 0 54 40.8 N
29 - 02:00 18.7 0 0 64 25.9 N
29 - 03:00 18.8 0 0 66 37.1 NO
29 - 04:00 18.5 0 0 65 40.1 N
29 - 05:00 18.7 0 0 71 29.2 NO
29 - 06:00 18.6 0 0 66 30.1 NO
29 - 07:00 18.8 0 0 62 28.3 N
29 - 08:00 19.4 0 0 46 32.4 N
29 - 09:00 19.1 0 0 53 35.9 N
Apalmet utiliza cookies propias y de terceros para mejorar la usabilidad y la experiencia web. Política de cookies.